Simultaneous Nadir Overpasses (SNOs) Predictions

Prediction of SNOs between GOES-16 and AQUA Satellite Orbit:

Table of predicted SNOs for the next 14.0 days since TLE Epoch: 9/24/2022
Index Date Time (GOES-16) GOES-16 Lat,Lon AQUA Lat,Lon Distance(km) Time Diff (sec)
1 09/25/2022 06:37:00 0.04, -75.19 -0.10, -74.42 87.63 80
2 09/25/2022 18:58:16 -0.04, -75.20 -0.97, -79.58 497.21 80
3 09/27/2022 06:24:16 0.04, -75.21 -0.79, -71.32 441.67 80
4 09/27/2022 18:45:31 -0.04, -75.22 -0.33, -76.47 142.98 80
5 09/29/2022 18:35:26 -0.04, -75.23 0.33, -73.37 211.55 80
6 09/30/2022 06:56:34 0.04, -75.23 0.71, -78.50 370.94 80
7 10/02/2022 06:41:08 0.04, -75.24 0.09, -75.38 16.72 80
8 10/04/2022 06:28:23 0.03, -75.26 -0.60, -72.29 338.25 80
9 10/04/2022 18:49:38 -0.02, -75.27 -0.50, -77.44 246.31 80
10 10/06/2022 18:39:32 -0.02, -75.30 0.16, -74.33 109.76 80
11 10/07/2022 07:00:38 0.01, -75.30 0.93, -79.45 471.96 80
